Powrót do katalogu

FENGYUN 1C DEB

AktywnyPO
NORAD 30694·DEBRIS·🇨🇳 China

Wystrzelony May 10, 1999 z Taiyuan Satellite Launch Center

Loading…

Następne Przeloty (najbliższe 24 godziny)

TLE

ŚwieżeSource: Space-Track

Epoka: Sep 12, 2026, 23:50 UTC

1 30694U 99025ARC 26255.99317825  .00003419  00000-0  30377-3 0  9991
2 30694  99.0639 266.7479 0121416 139.4320 221.6022 14.91471995 41783

Śledź FENGYUN 1C DEB w czasie rzeczywistym z AllMySat

Download on the App Store